HISPASAT 30W-5

Last updated on Sun Oct 06 2024 00:02:39 GMT+0000 (Coordinated Universal Time)

1 37264U 10070A 24278.24776484 -.00000208 00000+0 00000+0 0 9994 2 37264 0.0329 123.2058 0005308 52.0288 257.3947 1.00273167 50447
UTC large
Height (km)
Speed (km/s)
/
Latitude / Longitude
Inclination (degrees)
Orbital Period (minutes)
Azimuth
Elevation
Range (km)
Doppler Factor

Next 0 passes for location: London (51.5072 / 0.1276)

Sorry there are no passes over London.